User: anonymous   Login
Location: Chuathbaluk
(61.5726°N, 159.2454°W)
Time: 12:23:06
(UTC+00:00)
Language:

NUDT-PHONESAT - Orbit

View from above orbital plane
View from above orbital plane
View from above satellite
View from above satellite

Ground track
Ground track

The orbit data is extracted from the following two-line orbital elements,

1 40900U 15049B   21138.15319500  .00004111  00000-0  16138-3 0  9990
2 40900  97.4196 152.4709 0010028 242.2817 183.2919 15.26243277314208
Epoch (UTC): 18 May 2021 03:40:36
Eccentricity: 0.0010028
inclination: 97.4196°
perigee height: 480 km
apogee height: 494 km
right ascension of ascending node: 152.4709°
argument of perigee: 242.2817°
revolutions per day: 15.26243277
mean anomaly at epoch: 183.2919°
orbit number at epoch: 31420

The dashed part of the orbit path shows where the satellite is in the earth's shadow,  

DLR